TOM2LY EGKK-LGIR

Flight info

Callsign TOM2LY
Flight time N/A
Altitude 37000
Route DVR L9 KONAN DCT KOK DCT SISGA DCT KOMOB DCT EDISA DCT KUNOD DCT GEDSO DCT VEKEN DCT MSR DCT PINDO DCT PIKOS UL607 GIVIS T514 XAVIS
Aircraft B738/M-SDE2E3FGHIRWXY/LB1

Departure

Time 2026-05-08 06:14
Airport London Gatwick Airport (EGKK)

Arrival

Time N/A
Airport Heraklion International Nikos Kazantzakis Airport (LGIR)
Time Latitude Longitude Altitude Speed Heading
2026-05-08 06:02 51.15146 -0.19480 209 ft 0 kts 77°
2026-05-08 06:07 51.15145 -0.19488 204 ft 4 kts 78°
2026-05-08 06:08 51.15141 -0.19530 213 ft 4 kts 88°
2026-05-08 06:08 51.15143 -0.19572 213 ft 4 kts 109°
2026-05-08 06:08 51.15155 -0.19602 211 ft 3 kts 162°
2026-05-08 06:08 51.15159 -0.19604 216 ft 1 kts 168°
2026-05-08 06:11 51.15148 -0.19600 213 ft 8 kts 168°
2026-05-08 06:11 51.15052 -0.19571 208 ft 16 kts 178°
2026-05-08 06:11 51.14998 -0.19701 209 ft 15 kts 258°
2026-05-08 06:11 51.14975 -0.19868 204 ft 18 kts 257°
2026-05-08 06:12 51.14942 -0.20112 213 ft 27 kts 258°
2026-05-08 06:12 51.14889 -0.20493 205 ft 41 kts 257°
2026-05-08 06:12 51.14828 -0.20928 210 ft 39 kts 257°
2026-05-08 06:12 51.14765 -0.21318 206 ft 26 kts 256°
2026-05-08 06:13 51.14687 -0.21392 209 ft 13 kts 154°
2026-05-08 06:13 51.14585 -0.21318 213 ft 22 kts 162°
2026-05-08 06:13 51.14530 -0.21102 209 ft 23 kts 78°
2026-05-08 06:13 51.14592 -0.20653 208 ft 81 kts 78°
2026-05-08 06:14 51.14775 -0.19331 213 ft 160 kts 77°
2026-05-08 06:14 51.15048 -0.17347 665 ft 198 kts 78°
2026-05-08 06:14 51.15354 -0.15132 1582 ft 204 kts 81°
2026-05-08 06:14 51.15646 -0.12939 2561 ft 207 kts 81°
2026-05-08 06:15 51.15951 -0.10553 2876 ft 231 kts 81°
2026-05-08 06:15 51.16280 -0.07999 3513 ft 240 kts 80°
2026-05-08 06:15 51.16633 -0.05275 4008 ft 259 kts 80°
2026-05-08 06:15 51.17003 -0.02466 4903 ft 265 kts 80°
2026-05-08 06:16 51.17384 0.00427 5760 ft 268 kts 79°
2026-05-08 06:16 51.17771 0.03365 6702 ft 272 kts 79°
2026-05-08 06:16 51.18162 0.06341 7530 ft 278 kts 79°
2026-05-08 06:16 51.18438 0.09426 8331 ft 285 kts 92°
2026-05-08 06:17 51.17991 0.15798 9991 ft 296 kts 98°
2026-05-08 06:17 51.17744 0.19137 10480 ft 314 kts 97°
2026-05-08 06:17 51.17500 0.22743 10670 ft 341 kts 97°
2026-05-08 06:18 51.17251 0.26637 10882 ft 364 kts 96°
2026-05-08 06:18 51.16999 0.30654 11435 ft 374 kts 97°
2026-05-08 06:18 51.16784 0.34812 12216 ft 378 kts 92°
2026-05-08 06:18 51.16787 0.39019 13045 ft 382 kts 90°
2026-05-08 06:19 51.16829 0.43267 13819 ft 386 kts 90°
2026-05-08 06:19 51.16849 0.47565 14504 ft 390 kts 91°
2026-05-08 06:19 51.16850 0.51890 15268 ft 391 kts 91°
2026-05-08 06:19 51.16837 0.56241 15983 ft 394 kts 92°
2026-05-08 06:20 51.16819 0.60626 16681 ft 398 kts 92°
2026-05-08 06:20 51.16799 0.65003 17369 ft 402 kts 92°
2026-05-08 06:20 51.16778 0.69473 18062 ft 405 kts 92°
2026-05-08 06:20 51.16756 0.73981 18682 ft 409 kts 92°
2026-05-08 06:21 51.16732 0.78541 19263 ft 413 kts 92°
2026-05-08 06:21 51.16707 0.83132 19835 ft 417 kts 92°
2026-05-08 06:21 51.16681 0.87775 20403 ft 421 kts 92°
2026-05-08 06:21 51.16662 0.90866 20774 ft 423 kts 92°
2026-05-08 06:22 51.16632 0.95574 21345 ft 427 kts 92°
2026-05-08 06:22 51.16589 1.01858 22089 ft 430 kts 92°
2026-05-08 06:22 51.16555 1.06648 22604 ft 434 kts 92°
2026-05-08 06:22 51.16517 1.11480 23096 ft 438 kts 92°
2026-05-08 06:23 51.16478 1.16346 23587 ft 441 kts 92°
2026-05-08 06:23 51.16436 1.21252 24007 ft 444 kts 92°
2026-05-08 06:23 51.16393 1.26187 24433 ft 447 kts 92°
2026-05-08 06:23 51.16347 1.31148 24849 ft 449 kts 92°
2026-05-08 06:24 51.16315 1.34452 25117 ft 451 kts 92°
2026-05-08 06:24 51.16215 1.39456 25508 ft 453 kts 95°
2026-05-08 06:24 51.15912 1.46106 25992 ft 456 kts 96°
2026-05-08 06:24 51.15634 1.51158 26355 ft 459 kts 97°
2026-05-08 06:25 51.15443 1.54589 26609 ft 461 kts 97°
2026-05-08 06:25 51.15079 1.61336 27104 ft 464 kts 96°
2026-05-08 06:25 51.14903 1.64730 27336 ft 465 kts 96°
2026-05-08 06:25 51.14641 1.69882 27689 ft 468 kts 96°
2026-05-08 06:26 51.14381 1.75051 28027 ft 470 kts 96°
2026-05-08 06:26 51.14119 1.80253 28359 ft 472 kts 96°
2026-05-08 06:26 51.13854 1.85471 28678 ft 474 kts 96°
2026-05-08 06:26 51.13497 1.92424 29162 ft 476 kts 96°
2026-05-08 06:27 51.13313 1.95963 29483 ft 475 kts 96°
2026-05-08 06:27 51.13042 2.01117 29998 ft 472 kts 96°
2026-05-08 06:27 51.12767 2.06316 30437 ft 471 kts 96°
2026-05-08 06:27 51.12490 2.11508 30785 ft 471 kts 96°
2026-05-08 06:28 51.12211 2.16702 31107 ft 471 kts 96°
2026-05-08 06:28 51.11930 2.21891 31454 ft 471 kts 96°
2026-05-08 06:28 51.11647 2.27080 31820 ft 470 kts 97°
2026-05-08 06:28 51.11363 2.32253 32185 ft 469 kts 97°
2026-05-08 06:29 51.11076 2.37432 32514 ft 469 kts 97°
2026-05-08 06:29 51.10788 2.42598 32869 ft 468 kts 97°
2026-05-08 06:29 51.10502 2.47686 33240 ft 467 kts 97°
2026-05-08 06:29 51.10212 2.52825 33588 ft 467 kts 97°
2026-05-08 06:30 51.09918 2.57973 33912 ft 467 kts 97°
2026-05-08 06:30 51.09474 2.63076 34195 ft 465 kts 105°
2026-05-08 06:30 51.08562 2.67996 34425 ft 463 kts 113°
2026-05-08 06:30 51.07196 2.72613 34648 ft 462 kts 120°
2026-05-08 06:31 51.05679 2.77111 34867 ft 462 kts 121°
2026-05-08 06:31 51.04141 2.81604 35108 ft 463 kts 121°
2026-05-08 06:31 51.02602 2.86107 35338 ft 464 kts 121°
2026-05-08 06:31 51.01092 2.90555 35564 ft 464 kts 120°
2026-05-08 06:32 50.99567 2.95078 35776 ft 465 kts 120°
2026-05-08 06:32 50.98046 2.99609 35999 ft 466 kts 120°
2026-05-08 06:32 50.96526 3.04143 36215 ft 466 kts 120°
2026-05-08 06:32 50.95000 3.08694 36421 ft 467 kts 120°
2026-05-08 06:33 50.93492 3.13186 36607 ft 468 kts 120°
2026-05-08 06:33 50.91960 3.17741 36806 ft 469 kts 120°
2026-05-08 06:33 50.90424 3.22298 37026 ft 469 kts 120°
2026-05-08 06:33 50.88879 3.26871 37070 ft 473 kts 120°
2026-05-08 06:34 50.85777 3.36023 37073 ft 475 kts 120°
2026-05-08 06:34 50.82669 3.45167 37076 ft 469 kts 120°
2026-05-08 06:35 50.79578 3.54225 37081 ft 467 kts 121°
2026-05-08 06:35 50.76489 3.63239 37083 ft 466 kts 121°
2026-05-08 06:36 50.73419 3.72169 37084 ft 466 kts 121°
2026-05-08 06:36 50.70316 3.81164 37077 ft 467 kts 121°
2026-05-08 06:37 50.67206 3.90148 37081 ft 468 kts 121°
2026-05-08 06:37 50.64078 3.99158 37082 ft 469 kts 121°
2026-05-08 06:38 50.60955 4.08112 37079 ft 470 kts 121°
2026-05-08 06:38 50.57783 4.17126 37092 ft 472 kts 121°
2026-05-08 06:39 50.54590 4.26158 37095 ft 472 kts 121°
2026-05-08 06:39 50.51392 4.35182 37106 ft 473 kts 121°
2026-05-08 06:40 50.48207 4.44144 37104 ft 473 kts 121°
2026-05-08 06:40 50.44994 4.53155 37108 ft 473 kts 121°
2026-05-08 06:41 50.41773 4.62152 37094 ft 473 kts 122°
2026-05-08 06:41 50.38550 4.71127 37077 ft 472 kts 122°
2026-05-08 06:42 50.35341 4.80031 37083 ft 472 kts 122°
2026-05-08 06:42 50.32109 4.88968 37086 ft 472 kts 122°
2026-05-08 06:43 50.28873 4.97884 37073 ft 471 kts 122°
2026-05-08 06:43 50.25631 5.06785 37067 ft 471 kts 122°
2026-05-08 06:44 50.22385 5.15669 37088 ft 470 kts 122°
2026-05-08 06:44 50.19157 5.24474 37078 ft 471 kts 122°
2026-05-08 06:45 50.15901 5.33327 37081 ft 471 kts 122°
2026-05-08 06:45 50.12629 5.42173 37089 ft 471 kts 122°
2026-05-08 06:46 50.09336 5.50989 37079 ft 471 kts 123°
2026-05-08 06:46 50.06058 5.59736 37088 ft 471 kts 123°
2026-05-08 06:47 50.02753 5.68532 37085 ft 471 kts 123°
2026-05-08 06:47 49.99443 5.77319 37079 ft 471 kts 123°
2026-05-08 06:48 49.96124 5.86101 37092 ft 471 kts 123°
2026-05-08 06:48 49.92820 5.94813 37080 ft 472 kts 123°
2026-05-08 06:49 49.89486 6.03574 37077 ft 472 kts 123°
2026-05-08 06:49 49.86142 6.12331 37080 ft 472 kts 123°
2026-05-08 06:50 49.82791 6.21078 37076 ft 472 kts 123°
2026-05-08 06:50 49.79433 6.29815 37067 ft 472 kts 123°
2026-05-08 06:51 49.76105 6.38444 37067 ft 472 kts 123°
2026-05-08 06:51 49.72738 6.47146 37072 ft 472 kts 123°
2026-05-08 06:52 49.69363 6.55839 37074 ft 471 kts 123°
2026-05-08 06:52 49.65985 6.64510 37071 ft 472 kts 123°
2026-05-08 06:53 49.62597 6.73181 37078 ft 472 kts 124°
2026-05-08 06:53 49.59227 6.81776 37072 ft 471 kts 124°
2026-05-08 06:54 49.55828 6.90414 37081 ft 472 kts 124°
2026-05-08 06:54 49.52419 6.99051 37060 ft 472 kts 124°
2026-05-08 06:55 49.49008 7.07667 37075 ft 471 kts 124°
2026-05-08 06:55 49.45616 7.16205 37079 ft 471 kts 124°
2026-05-08 06:56 49.42199 7.24780 37087 ft 470 kts 124°
2026-05-08 06:56 49.38776 7.33340 37101 ft 470 kts 124°
2026-05-08 06:57 49.35348 7.41885 37099 ft 470 kts 124°
2026-05-08 06:57 49.31917 7.50412 37103 ft 470 kts 124°
2026-05-08 06:58 49.28502 7.58870 37092 ft 470 kts 124°
2026-05-08 06:58 49.25059 7.67372 37094 ft 469 kts 125°
2026-05-08 06:59 49.21612 7.75856 37097 ft 469 kts 125°
2026-05-08 06:59 49.18163 7.84316 37097 ft 469 kts 125°
2026-05-08 07:00 49.14733 7.92706 37097 ft 469 kts 125°
2026-05-08 07:00 49.11272 8.01144 37081 ft 469 kts 125°
2026-05-08 07:01 49.07808 8.09562 37088 ft 469 kts 125°
2026-05-08 07:01 49.04335 8.17979 37079 ft 469 kts 125°
2026-05-08 07:02 49.00880 8.26328 37079 ft 469 kts 125°
2026-05-08 07:02 48.97301 8.34619 37077 ft 467 kts 129°
2026-05-08 07:03 48.93432 8.42559 37081 ft 467 kts 130°
2026-05-08 07:03 48.89515 8.50434 37074 ft 467 kts 130°
2026-05-08 07:04 48.85644 8.58277 37074 ft 467 kts 130°
2026-05-08 07:04 48.81760 8.66185 37070 ft 467 kts 130°
2026-05-08 07:05 48.77877 8.74082 37073 ft 467 kts 130°
2026-05-08 07:05 48.73990 8.81962 37072 ft 467 kts 130°
2026-05-08 07:06 48.70101 8.89821 37089 ft 466 kts 130°
2026-05-08 07:06 48.66233 8.97613 37096 ft 466 kts 130°
2026-05-08 07:07 48.62334 9.05447 37094 ft 466 kts 130°
2026-05-08 07:07 48.58432 9.13263 37093 ft 466 kts 130°
2026-05-08 07:08 48.54522 9.21071 37096 ft 466 kts 130°
2026-05-08 07:08 48.50633 9.28815 37071 ft 466 kts 130°
2026-05-08 07:09 48.46712 9.36604 37071 ft 466 kts 130°
2026-05-08 07:09 48.42779 9.44391 37068 ft 467 kts 130°
2026-05-08 07:10 48.38843 9.52164 37072 ft 467 kts 130°
2026-05-08 07:10 48.34923 9.59886 37081 ft 468 kts 130°
2026-05-08 07:11 48.30911 9.67591 37107 ft 467 kts 132°
2026-05-08 07:11 48.26810 9.75166 37107 ft 467 kts 132°
2026-05-08 07:12 48.22698 9.82727 37091 ft 468 kts 132°
2026-05-08 07:12 48.18622 9.90241 37100 ft 467 kts 132°
2026-05-08 07:13 48.14524 9.97795 37100 ft 467 kts 132°
2026-05-08 07:13 48.10420 10.05344 37097 ft 467 kts 132°
2026-05-08 07:14 48.06316 10.12871 37079 ft 467 kts 132°
2026-05-08 07:14 48.02205 10.20389 37072 ft 467 kts 132°
2026-05-08 07:15 47.98119 10.27839 37067 ft 467 kts 132°
2026-05-08 07:15 47.94003 10.35325 37053 ft 466 kts 133°
2026-05-08 07:16 47.89883 10.42796 37070 ft 466 kts 133°
2026-05-08 07:16 47.85760 10.50252 37069 ft 466 kts 133°
2026-05-08 07:17 47.81657 10.57651 37073 ft 466 kts 133°
2026-05-08 07:17 47.77524 10.65085 37055 ft 467 kts 133°
2026-05-08 07:18 47.73381 10.72515 37069 ft 467 kts 133°
2026-05-08 07:18 47.69229 10.79943 37055 ft 468 kts 133°
2026-05-08 07:19 47.65097 10.87314 37071 ft 468 kts 133°
2026-05-08 07:19 47.60924 10.94734 37055 ft 469 kts 134°
2026-05-08 07:20 47.56745 11.02149 37073 ft 469 kts 134°
2026-05-08 07:20 47.52552 11.09567 37068 ft 470 kts 134°
2026-05-08 07:21 47.48346 11.16988 37073 ft 471 kts 134°
2026-05-08 07:21 47.44158 11.24359 37084 ft 472 kts 134°
2026-05-08 07:22 47.39929 11.31778 37073 ft 472 kts 134°
2026-05-08 07:22 47.35700 11.39180 37091 ft 472 kts 134°
2026-05-08 07:23 47.31469 11.46564 37091 ft 472 kts 134°
2026-05-08 07:23 47.27254 11.53901 37101 ft 472 kts 134°
2026-05-08 07:24 47.23011 11.61266 37124 ft 472 kts 134°
2026-05-08 07:24 47.18760 11.68627 37071 ft 472 kts 135°
2026-05-08 07:25 47.14523 11.75946 37091 ft 469 kts 135°
2026-05-08 07:26 47.08289 11.86878 37088 ft 471 kts 129°
2026-05-08 07:26 47.05147 11.95380 37103 ft 477 kts 120°
2026-05-08 07:27 47.02295 12.04172 37102 ft 478 kts 119°
2026-05-08 07:27 46.99403 12.12959 37092 ft 479 kts 120°
2026-05-08 07:28 46.96482 12.21671 37130 ft 480 kts 120°
2026-05-08 07:28 46.93513 12.30452 37117 ft 481 kts 120°
2026-05-08 07:29 46.90539 12.39220 37105 ft 481 kts 121°
2026-05-08 07:29 46.87569 12.47951 37124 ft 480 kts 121°
2026-05-08 07:30 46.84610 12.56621 37102 ft 480 kts 120°
2026-05-08 07:30 46.81631 12.65324 37108 ft 479 kts 121°
2026-05-08 07:31 46.78638 12.74034 37060 ft 480 kts 121°
2026-05-08 07:31 46.75649 12.82710 37081 ft 479 kts 121°
2026-05-08 07:32 46.72672 12.91320 37064 ft 479 kts 121°
2026-05-08 07:32 46.69666 12.99985 37088 ft 479 kts 121°
2026-05-08 07:33 46.66646 13.08659 37066 ft 481 kts 121°
2026-05-08 07:33 46.63615 13.17342 37073 ft 482 kts 121°
2026-05-08 07:34 46.60574 13.26029 37065 ft 481 kts 121°
2026-05-08 07:34 46.57543 13.34633 37081 ft 481 kts 123°
2026-05-08 07:35 46.53610 13.42289 37078 ft 469 kts 140°
2026-05-08 07:35 46.48992 13.48972 37075 ft 469 kts 140°
2026-05-08 07:36 46.44362 13.55639 37091 ft 470 kts 140°
2026-05-08 07:36 46.39778 13.62303 37092 ft 470 kts 140°
2026-05-08 07:37 46.35171 13.69028 37073 ft 470 kts 140°
2026-05-08 07:37 46.30565 13.75745 37074 ft 471 kts 140°
2026-05-08 07:38 46.25941 13.82467 37082 ft 472 kts 140°
2026-05-08 07:38 46.21311 13.89182 37093 ft 472 kts 140°
2026-05-08 07:39 46.16712 13.95835 37088 ft 471 kts 140°
2026-05-08 07:39 46.12080 14.02517 37088 ft 471 kts 140°
2026-05-08 07:40 46.07454 14.09174 37094 ft 469 kts 140°
2026-05-08 07:40 46.02831 14.15809 37102 ft 469 kts 140°
2026-05-08 07:41 45.98210 14.22425 37084 ft 468 kts 140°
2026-05-08 07:41 45.93628 14.28970 37089 ft 467 kts 140°
2026-05-08 07:42 45.89024 14.35528 37087 ft 466 kts 140°
2026-05-08 07:42 45.84432 14.42057 37096 ft 465 kts 140°
2026-05-08 07:43 45.79833 14.48575 37087 ft 465 kts 141°
2026-05-08 07:43 45.75255 14.55048 37096 ft 466 kts 141°
2026-05-08 07:44 45.70636 14.61562 37091 ft 467 kts 141°
2026-05-08 07:44 45.66001 14.68085 37083 ft 467 kts 141°
2026-05-08 07:45 45.61365 14.74593 37085 ft 467 kts 141°
2026-05-08 07:45 45.56728 14.81086 37083 ft 467 kts 141°
2026-05-08 07:46 45.52109 14.87538 37092 ft 468 kts 141°
2026-05-08 07:46 45.47442 14.94041 37085 ft 470 kts 141°
2026-05-08 07:47 45.42769 15.00538 37094 ft 469 kts 141°
2026-05-08 07:47 45.38096 15.07019 37092 ft 469 kts 141°
2026-05-08 07:48 45.33453 15.13443 37095 ft 468 kts 141°
2026-05-08 07:48 45.28785 15.19886 37100 ft 468 kts 141°
2026-05-08 07:49 45.24120 15.26309 37095 ft 467 kts 141°
2026-05-08 07:49 45.19455 15.32717 37097 ft 466 kts 141°
2026-05-08 07:50 45.14827 15.39057 37098 ft 466 kts 141°
2026-05-08 07:50 45.10171 15.45422 37087 ft 465 kts 141°
2026-05-08 07:51 45.05519 15.51765 37095 ft 464 kts 141°
2026-05-08 07:51 45.00868 15.58091 37086 ft 464 kts 141°
2026-05-08 07:52 44.96220 15.64399 37102 ft 463 kts 141°
2026-05-08 07:52 44.91597 15.70658 37096 ft 464 kts 141°
2026-05-08 07:53 44.86926 15.76966 37082 ft 465 kts 141°
2026-05-08 07:53 44.82257 15.83259 37084 ft 464 kts 141°
2026-05-08 07:54 44.77580 15.89547 37083 ft 465 kts 141°
2026-05-08 07:54 44.72901 15.95822 37093 ft 465 kts 141°
2026-05-08 07:55 44.68274 16.02015 37097 ft 465 kts 141°
2026-05-08 07:55 44.63586 16.08272 37093 ft 465 kts 141°
2026-05-08 07:56 44.58888 16.14528 37084 ft 465 kts 141°
2026-05-08 07:56 44.54187 16.20775 37078 ft 465 kts 141°
2026-05-08 07:57 44.49520 16.26962 37080 ft 465 kts 141°
2026-05-08 07:57 44.44817 16.33183 37064 ft 465 kts 141°
2026-05-08 07:58 44.40114 16.39388 37066 ft 465 kts 141°
2026-05-08 07:58 44.35407 16.45583 37075 ft 465 kts 141°
2026-05-08 07:59 44.30726 16.51731 37062 ft 465 kts 141°
2026-05-08 07:59 44.26012 16.57909 37071 ft 465 kts 141°
2026-05-08 08:00 44.21298 16.64073 37059 ft 464 kts 141°
2026-05-08 08:00 44.16602 16.70200 37080 ft 462 kts 141°
2026-05-08 08:01 44.11936 16.76271 37059 ft 462 kts 141°
2026-05-08 08:01 44.07250 16.82355 37073 ft 461 kts 141°
2026-05-08 08:02 44.02563 16.88427 37063 ft 460 kts 141°
2026-05-08 08:02 43.97880 16.94479 37082 ft 460 kts 141°
2026-05-08 08:03 43.93583 17.00021 37061 ft 460 kts 141°
2026-05-08 08:03 43.88889 17.06062 37074 ft 460 kts 141°
2026-05-08 08:04 43.84192 17.12094 37060 ft 460 kts 141°
2026-05-08 08:04 43.79496 17.18110 37064 ft 460 kts 141°
2026-05-08 08:05 43.74835 17.24069 37075 ft 459 kts 141°
2026-05-08 08:05 43.70141 17.30056 37073 ft 459 kts 141°
2026-05-08 08:06 43.65449 17.36027 37058 ft 459 kts 142°
2026-05-08 08:06 43.60759 17.41984 37053 ft 458 kts 142°
2026-05-08 08:07 43.56079 17.47915 37069 ft 456 kts 142°
2026-05-08 08:07 43.51441 17.53779 37075 ft 455 kts 142°
2026-05-08 08:08 43.46778 17.59661 37061 ft 454 kts 142°
2026-05-08 08:08 43.42119 17.65525 37090 ft 454 kts 142°
2026-05-08 08:09 43.37453 17.71386 37081 ft 455 kts 142°
2026-05-08 08:09 43.32807 17.77211 37059 ft 455 kts 142°
2026-05-08 08:10 43.28128 17.83065 37039 ft 455 kts 142°
2026-05-08 08:10 43.23424 17.88852 37050 ft 454 kts 143°
2026-05-08 08:11 43.18625 17.94495 37023 ft 454 kts 144°
2026-05-08 08:11 43.13855 18.00062 37046 ft 453 kts 144°
2026-05-08 08:12 43.09066 18.05668 37056 ft 453 kts 144°
2026-05-08 08:12 43.04279 18.11277 37052 ft 453 kts 144°
2026-05-08 08:13 42.99493 18.16880 37057 ft 453 kts 144°
2026-05-08 08:13 42.94738 18.22434 37040 ft 452 kts 143°
2026-05-08 08:14 42.89960 18.28004 37054 ft 452 kts 143°
2026-05-08 08:14 42.85179 18.33565 37041 ft 452 kts 144°
2026-05-08 08:15 42.80396 18.39115 37030 ft 451 kts 144°
2026-05-08 08:15 42.75618 18.44649 37013 ft 451 kts 143°
2026-05-08 08:16 42.70875 18.50130 37040 ft 450 kts 144°
2026-05-08 08:16 42.66090 18.55648 37038 ft 452 kts 143°
2026-05-08 08:17 42.61281 18.61181 37014 ft 454 kts 143°
2026-05-08 08:17 42.56456 18.66723 37005 ft 455 kts 143°
2026-05-08 08:18 42.51647 18.72234 37005 ft 456 kts 144°
2026-05-08 08:18 42.46793 18.77786 37027 ft 457 kts 144°
2026-05-08 08:19 42.41934 18.83332 37027 ft 457 kts 144°
2026-05-08 08:19 42.37076 18.88865 37027 ft 456 kts 144°
2026-05-08 08:20 42.32253 18.94348 37030 ft 456 kts 144°